Date,TemperatureHighF,TemperatureAvgF,TemperatureLowF,DewpointHighF,DewpointAvgF,DewpointLowF,HumidityHigh,HumidityAvg,HumidityLow,PressureMaxIn,PressureMinIn,WindSpeedMaxMPH,WindSpeedAvgMPH,GustSpeedMaxMPH,PrecipitationSumIn
2013-10-1,73.2,63.2,51.7,53.3,43.4,31.5,76,52,23,29.91,29.43,17,3,17,0.00
2013-10-2,74.4,57.8,45.5,53.1,42.6,33.6,100,63,25,29.96,29.76,26,4,26,0.63
2013-10-3,54.5,53.0,51.6,54.5,52.9,51.6,100,100,98,29.91,29.78,17,2,17,0.14
2013-10-4,56.5,53.0,51.0,53.6,52.2,51.0,100,97,87,29.94,29.78,18,5,24,0.15
2013-10-5,57.5,50.9,42.1,55.9,48.2,40.2,100,91,66,29.79,29.67,21,3,21,0.17
2013-10-6,50.4,47.7,43.9,49.7,46.4,40.9,100,95,78,29.81,29.63,16,3,16,0.17
2013-10-7,66.8,54.5,44.8,45.6,42.0,37.2,93,66,35,29.90,29.78,10,1,10,0.01
2013-10-8,77.7,62.7,48.2,48.7,45.0,36.3,85,56,31,29.86,29.65,30,10,30,0.00
2013-10-9,75.3,64.1,51.1,53.0,49.6,42.3,86,61,42,29.92,29.77,20,8,20,0.00
2013-10-10,76.8,64.0,52.0,55.7,50.7,46.6,83,64,46,29.92,29.73,22,9,22,0.00
2013-10-11,70.1,62.8,57.2,60.6,55.0,50.3,93,76,57,29.75,29.45,36,10,36,0.47
2013-10-12,61.6,50.0,42.1,58.0,45.3,37.5,95,84,74,30.12,29.56,21,4,21,0.08
2013-10-13,58.9,47.3,33.7,42.2,35.1,31.1,97,66,36,30.37,30.13,8,0,8,0.00
2013-10-14,49.6,46.6,44.3,45.8,40.1,35.1,99,79,59,30.33,29.85,18,4,19,0.68
2013-10-15,48.2,46.3,43.1,48.2,46.2,42.8,100,100,99,29.85,29.63,27,5,27,0.86
2013-10-16,55.1,45.3,38.2,42.9,38.8,33.8,100,80,47,29.92,29.81,11,2,16,0.01
2013-10-17,48.0,42.1,37.8,46.2,39.8,35.1,100,92,80,29.85,29.74,14,2,14,0.41
2013-10-18,52.5,42.3,35.0,39.5,35.0,29.4,99,78,43,29.95,29.78,13,2,13,0.04
2013-10-19,44.8,36.9,30.6,40.5,34.1,28.7,100,90,64,29.78,29.65,14,2,14,0.09
2013-10-20,37.9,34.0,29.8,36.6,32.5,24.2,100,94,72,29.89,29.60,18,3,18,0.09
2013-10-21,38.2,32.4,26.6,25.7,23.4,20.1,89,70,56,29.94,29.89,18,3,18,0.00
2013-10-22,39.5,32.6,25.0,30.7,27.3,22.9,98,81,67,30.02,29.94,11,2,11,0.00
2013-10-23,36.5,32.9,30.6,29.2,23.9,19.5,91,70,53,30.11,29.98,16,3,16,0.00
2013-10-24,43.1,35.0,27.5,31.6,28.0,19.6,95,76,56,30.28,30.11,13,3,13,0.00
2013-10-25,57.3,40.8,23.0,44.3,33.5,21.8,96,77,54,30.28,29.73,29,6,29,0.00
2013-10-26,47.6,39.2,31.3,36.4,29.2,26.7,84,67,56,30.08,29.77,21,6,21,0.00
2013-10-27,56.9,39.6,26.9,36.1,29.8,24.1,91,70,44,30.12,29.76,16,4,16,0.00
2013-10-28,40.2,32.6,26.9,29.0,23.0,19.1,86,69,45,30.43,30.12,14,2,14,0.00
2013-10-29,34.3,31.4,26.9,34.3,29.0,23.4,100,91,83,30.41,30.07,12,2,12,0.05
2013-10-30,43.8,39.1,34.3,43.8,39.1,34.3,100,100,100,30.07,29.62,7,1,7,0.04
2013-10-31,43.5,38.7,36.9,43.5,38.6,36.9,100,99,97,29.63,29.37,14,3,14,0.02